Regional Weather Roundup
Issued by NWS

Home | Current Version | Previous Version | Graphics & Text | Print | Product List | Glossary On
Versions: 1 2 3 4 5 6 7 8 9 10 11 12 13 14 15 16 17 18 19 20 21 22 23 24 25 26 27 28 29 30 31 32 33 34 35 36 37 38 39 40 41 42 43 44 45 46 47 48 49 50
438
ASUS43 KIND 280109
RWRIN

WEATHER ROUNDUP FOR INDIANA
NATIONAL WEATHER SERVICE INDIANAPOLIS IN
800 PM EST MON FEB 27 2017

NOTE: "FAIR" INDICATES FEW OR NO CLOUDS BELOW 12,000 FEET WITH NO
SIGNIFICANT WEATHER AND/OR OBSTRUCTIONS TO VISIBILITY.

* - STATION DOES NOT REPORT WEATHER SUCH AS PRECIPITATION OR FOG.

+ - STATION NOT QUALITY CONTROLLED BY THE NATIONAL WEATHER SERVICE.
    USE DATA WITH CAUTION...ESPECIALLY DEWPOINT AND RELATIVE
    HUMIDITY OBSERVATIONS.

INZ001>003-010>013-019-020-280200-
NORTHWEST INDIANA

CITY           SKY/WX    TMP DP  RH WIND       PRES   REMARKS
GARY /AIRPORT/ MOCLDY    50  32  50 SE12      30.08
KNOX *+        CLOUDY    45  18  33 SE10      30.10F
LA PORTE +     CLOUDY    40  35  80 SE7       30.11S
MICHIGAN CITY+ CLOUDY    45  32  61 SE5       30.10F
MONTICELLO +   CLOUDY    46  38  74 SE5       30.11S
RENSSELAER +   CLOUDY    46  36  66 SE7       30.10S
VALPARAISO     CLOUDY    47  35  63 SE8       30.10S

$$

LMZ046-743>745-280200-
SOUTHERN LAKE MICHIGAN

STATION/POSITION TIME  TEMP    WIND        PRES    WAVE
                       AIR SEA DIR/SP/G            HT
                 (UTC) (F)     (DEG/KT/KT) (MB)    (FT)
BURNS HARBOR     0040   50     140/  8/ 13 1019.3F
MICHIGAN CITY    0040   48     110/  8/ 10   N/A

$$

INZ004-005-014>016-021>024-280200-
NORTH CENTRAL INDIANA

CITY           SKY/WX    TMP DP  RH WIND       PRES   REMARKS
ELKHART        CLOUDY    41  32  70 E6        30.13S
GOSHEN         CLOUDY    43  32  65 SE9       30.13S
LOGANSPORT +   CLEAR     43  37  81 SE6       30.14R
PERU/GRISSOM   CLEAR     43  40  89 S8        30.13R
ROCHESTER +    CLEAR     46  37  71 SE7       30.13F
SOUTH BEND     CLOUDY    43  33  68 SE6       30.13S
WARSAW +       PTCLDY    43  36  75 SE5       30.13F

$$

INZ006>009-017-018-025>027-280200-
NORTHEAST INDIANA

CITY           SKY/WX    TMP DP  RH WIND       PRES   REMARKS
ANGOLA *+      PTCLDY    43  36  75 SE8       30.16R
AUBURN +       PTCLDY    45  36  70 CALM      30.18R
FORT WAYNE     PTCLDY    42  36  79 SE3       30.17R
HUNTINGTON +   CLEAR     40  38  90 SE5       30.16S
KENDALLVILLE + CLOUDY    42  34  74 SE8       30.16R

$$

INZ028-029-035-036-043>045-051>053-280200-
WEST CENTRAL INDIANA

CITY           SKY/WX    TMP DP  RH WIND       PRES   REMARKS
GREENCASTLE +  FAIR      37  36  93 SE6       30.14S
LAFAYETTE      CLOUDY    47  39  74 SE6       30.11S
TERRE HAUTE    CLEAR     46  41  82 SE8       30.12S

$$

INZ030>032-037>040-046>048-054>057-064-065-280200-
CENTRAL INDIANA

CITY           SKY/WX    TMP DP  RH WIND       PRES   REMARKS
CP ATTERBURY + PTCLDY    43  39  87 CALM      30.17R
COLUMBUS       PTCLDY    41  41 100 CALM      30.17R
FRANKFORT +    CLEAR     44  40  84 S8        30.14S
GREENWOOD *+   PTCLDY    46  42  85 SE5       30.17R
INDIANAPOLIS   PTCLDY    45  40  82 SE10      30.14S
-EAGLE CREEK   PTCLDY    47  40  76 SE7       30.13S
KOKOMO +       CLEAR     41  38  89 SE8       30.16R
MARION +       CLEAR     43  38  82 S7        30.16S
MT COMFORT *+  PTCLDY    45  41  87 SE7       30.16S
SHELBYVILLE    CLOUDY    47  40  76 SE5       30.16R
ZIONSVILLE +   CLEAR     42  39  89 SE6       30.15R

$$

INZ033-034-041-042-049-050-058-059-280200-
EAST CENTRAL INDIANA

CITY           SKY/WX    TMP DP  RH WIND       PRES   REMARKS
MUNCIE         PTCLDY    45  39  79 SE5       30.17R

$$

INZ060-061-067>069-081>083-085>088-280200-
SOUTHWEST INDIANA

CITY           SKY/WX    TMP DP  RH WIND       PRES   REMARKS
EVANSVILLE     CLEAR     50  43  77 NE6       30.10F
HUNTINGBURG *+ CLEAR     51  44  77 E5        30.13R
WASHINGTON +   CLEAR     44  40  85 E6        30.13R

$$

INZ062-063-066-070>080-084-089>092-280200-
SOUTH CENTRAL AND SOUTHEAST INDIANA

CITY           SKY/WX    TMP DP  RH WIND       PRES   REMARKS
BEDFORD +      MOCLDY    46  41  81 E6        30.14
BLOOMINGTON    PTCLDY    46  40  79 SE3       30.14R
MADISON *+     CLEAR     46  39  76 E6        30.19R
NORTH VERNON + PTCLDY    46  45  93 CALM      30.17R
SEYMOUR +      PTCLDY    43  39  87 CALM      30.16R

$$





USA.gov is the U.S. government's official web portal to all federal, state and local government web resources and services.